Year,Month,Day,Hour,Minute,Value (Times are PST for temperature in C)
2006,09,25,00,00,10.70
2006,09,25,00,01,10.70
2006,09,25,00,02,10.70
2006,09,25,00,03,10.70
2006,09,25,00,04,10.60
2006,09,25,00,05,10.60
2006,09,25,00,06,10.60
2006,09,25,00,07,10.60
2006,09,25,00,08,10.60
2006,09,25,00,09,10.60
2006,09,25,00,10,10.60
2006,09,25,00,11,10.50
2006,09,25,00,12,10.50
2006,09,25,00,13,10.50
2006,09,25,00,14,10.40
2006,09,25,00,15,10.40
2006,09,25,00,16,10.40
2006,09,25,00,17,10.40
2006,09,25,00,18,10.40
2006,09,25,00,19,10.40
2006,09,25,00,20,10.40
2006,09,25,00,21,10.30
2006,09,25,00,22,10.30
2006,09,25,00,23,10.30
2006,09,25,00,24,10.30
2006,09,25,00,25,10.30
2006,09,25,00,26,10.30
2006,09,25,00,27,10.30
2006,09,25,00,28,10.30
2006,09,25,00,29,10.30
2006,09,25,00,30,10.30
2006,09,25,00,31,10.30
2006,09,25,00,32,10.20
2006,09,25,00,33,10.20
2006,09,25,00,34,10.20
2006,09,25,00,35,10.20
2006,09,25,00,36,10.20
2006,09,25,00,37,10.20
2006,09,25,00,38,10.20
2006,09,25,00,39,10.20
2006,09,25,00,40,10.20
2006,09,25,00,41,10.20
2006,09,25,00,42,10.20
2006,09,25,00,43,10.20
2006,09,25,00,44,10.10
2006,09,25,00,45,10.10
2006,09,25,00,46,10.10
2006,09,25,00,47,10.10
2006,09,25,00,48,10.10
2006,09,25,00,49,10.10
2006,09,25,00,50,10.10
2006,09,25,00,51,10.10
2006,09,25,00,52,10.10
2006,09,25,00,53,10.10
2006,09,25,00,54,10.10
2006,09,25,00,55,10.10
2006,09,25,00,56,10.00
2006,09,25,00,57,10.00
2006,09,25,00,58,10.00
2006,09,25,00,59,10.00
2006,09,25,01,00,10.00
2006,09,25,01,01,10.00
2006,09,25,01,02,10.00
2006,09,25,01,03,10.00
2006,09,25,01,04,9.90
2006,09,25,01,05,9.90
2006,09,25,01,06,9.90
2006,09,25,01,07,9.90
2006,09,25,01,08,9.90
2006,09,25,01,09,9.90
2006,09,25,01,10,9.80
2006,09,25,01,11,9.80
2006,09,25,01,12,9.80
2006,09,25,01,13,9.80
2006,09,25,01,14,9.80
2006,09,25,01,15,9.80
2006,09,25,01,16,9.80
2006,09,25,01,17,9.80
2006,09,25,01,18,9.80
2006,09,25,01,19,9.80
2006,09,25,01,20,9.80
2006,09,25,01,21,9.70
2006,09,25,01,22,9.70
2006,09,25,01,23,9.70
2006,09,25,01,24,9.70
2006,09,25,01,25,9.70
2006,09,25,01,26,9.70
2006,09,25,01,27,9.70
2006,09,25,01,28,9.70
2006,09,25,01,29,9.70
2006,09,25,01,30,9.60
2006,09,25,01,31,9.60
2006,09,25,01,32,9.60
2006,09,25,01,33,9.60
2006,09,25,01,34,9.60
2006,09,25,01,35,9.60
2006,09,25,01,36,9.60
2006,09,25,01,37,9.60
2006,09,25,01,38,9.60
2006,09,25,01,39,9.60
2006,09,25,01,40,9.60
2006,09,25,01,41,9.50
2006,09,25,01,42,9.50
2006,09,25,01,43,9.50
2006,09,25,01,44,9.50
2006,09,25,01,45,9.50
2006,09,25,01,46,9.50
2006,09,25,01,47,9.50
2006,09,25,01,48,9.50
2006,09,25,01,49,9.50
2006,09,25,01,50,9.40
2006,09,25,01,51,9.40
2006,09,25,01,52,9.40
2006,09,25,01,53,9.40
2006,09,25,01,54,9.40
2006,09,25,01,55,9.40
2006,09,25,01,56,9.40
2006,09,25,01,57,9.40
2006,09,25,01,58,9.30
2006,09,25,01,59,9.30
2006,09,25,02,00,9.30
2006,09,25,02,01,9.30
2006,09,25,02,02,9.30
2006,09,25,02,03,9.30
2006,09,25,02,04,9.30
2006,09,25,02,05,9.30
2006,09,25,02,06,9.30
2006,09,25,02,07,9.20
2006,09,25,02,08,9.20
2006,09,25,02,09,9.20
2006,09,25,02,10,9.20
2006,09,25,02,11,9.20
2006,09,25,02,12,9.20
2006,09,25,02,13,9.20
2006,09,25,02,14,9.20
2006,09,25,02,15,9.20
2006,09,25,02,16,9.20
2006,09,25,02,17,9.20
2006,09,25,02,18,9.20
2006,09,25,02,19,9.10
2006,09,25,02,20,9.10
2006,09,25,02,21,9.10
2006,09,25,02,22,9.10
2006,09,25,02,23,9.10
2006,09,25,02,24,9.10
2006,09,25,02,25,9.10
2006,09,25,02,26,9.10
2006,09,25,02,27,9.00
2006,09,25,02,28,9.00
2006,09,25,02,29,9.00
2006,09,25,02,30,9.00
2006,09,25,02,31,9.00
2006,09,25,02,32,8.90
2006,09,25,02,33,8.90
2006,09,25,02,34,8.90
2006,09,25,02,35,8.90
2006,09,25,02,36,8.90
2006,09,25,02,37,8.90
2006,09,25,02,38,8.90
2006,09,25,02,39,8.90
2006,09,25,02,40,8.90
2006,09,25,02,41,8.90
2006,09,25,02,42,8.90
2006,09,25,02,43,8.90
2006,09,25,02,44,8.90
2006,09,25,02,45,8.90
2006,09,25,02,46,8.90
2006,09,25,02,47,8.90
2006,09,25,02,48,8.90
2006,09,25,02,49,8.90
2006,09,25,02,50,8.90
2006,09,25,02,51,8.90
2006,09,25,02,52,8.80
2006,09,25,02,53,8.80
2006,09,25,02,54,8.80
2006,09,25,02,55,8.80
2006,09,25,02,56,8.80
2006,09,25,02,57,8.80
2006,09,25,02,58,8.80
2006,09,25,02,59,8.80
2006,09,25,03,00,8.80
2006,09,25,03,01,8.80
2006,09,25,03,02,8.80
2006,09,25,03,03,8.80
2006,09,25,03,04,8.80
2006,09,25,03,05,8.80
2006,09,25,03,06,8.80
2006,09,25,03,07,8.70
2006,09,25,03,08,8.70
2006,09,25,03,09,8.70
2006,09,25,03,10,8.70
2006,09,25,03,11,8.70
2006,09,25,03,12,8.70
2006,09,25,03,13,8.70
2006,09,25,03,14,8.70
2006,09,25,03,15,8.60
2006,09,25,03,16,8.60
2006,09,25,03,17,8.60
2006,09,25,03,18,8.60
2006,09,25,03,19,8.60
2006,09,25,03,20,8.60
2006,09,25,03,21,8.60
2006,09,25,03,22,8.60
2006,09,25,03,23,8.60
2006,09,25,03,24,8.60
2006,09,25,03,25,8.60
2006,09,25,03,26,8.60
2006,09,25,03,27,8.60
2006,09,25,03,28,8.60
2006,09,25,03,29,8.50
2006,09,25,03,30,8.50
2006,09,25,03,31,8.50
2006,09,25,03,32,8.50
2006,09,25,03,33,8.40
2006,09,25,03,34,8.40
2006,09,25,03,35,8.40
2006,09,25,03,36,8.40
2006,09,25,03,37,8.40
2006,09,25,03,38,8.40
2006,09,25,03,39,8.40
2006,09,25,03,40,8.40
2006,09,25,03,41,8.40
2006,09,25,03,42,8.40
2006,09,25,03,43,8.40
2006,09,25,03,44,8.40
2006,09,25,03,45,8.40
2006,09,25,03,46,8.40
2006,09,25,03,47,8.40
2006,09,25,03,48,8.40
2006,09,25,03,49,8.40
2006,09,25,03,50,8.40
2006,09,25,03,51,8.30
2006,09,25,03,52,8.30
2006,09,25,03,53,8.30
2006,09,25,03,54,8.30
2006,09,25,03,55,8.30
2006,09,25,03,56,8.30
2006,09,25,03,57,8.30
2006,09,25,03,58,8.30
2006,09,25,03,59,8.30
2006,09,25,04,00,8.30
2006,09,25,04,01,8.30
2006,09,25,04,02,8.30
2006,09,25,04,03,8.30
2006,09,25,04,04,8.30
2006,09,25,04,05,8.30
2006,09,25,04,06,8.30
2006,09,25,04,07,8.30
2006,09,25,04,08,8.30
2006,09,25,04,09,8.30
2006,09,25,04,10,8.30
2006,09,25,04,11,8.20
2006,09,25,04,12,8.20
2006,09,25,04,13,8.20
2006,09,25,04,14,8.20
2006,09,25,04,15,8.20
2006,09,25,04,16,8.20
2006,09,25,04,17,8.20
2006,09,25,04,18,8.20
2006,09,25,04,19,8.10
2006,09,25,04,20,8.10
2006,09,25,04,21,8.10
2006,09,25,04,22,8.10
2006,09,25,04,23,8.10
2006,09,25,04,24,8.10
2006,09,25,04,25,8.10
2006,09,25,04,26,8.10
2006,09,25,04,27,8.10
2006,09,25,04,28,8.10
2006,09,25,04,29,8.10
2006,09,25,04,30,8.10
2006,09,25,04,31,8.10
2006,09,25,04,32,8.10
2006,09,25,04,33,8.10
2006,09,25,04,34,8.10
2006,09,25,04,35,8.10
2006,09,25,04,36,8.10
2006,09,25,04,37,8.10
2006,09,25,04,38,8.10
2006,09,25,04,39,8.10
2006,09,25,04,40,8.10
2006,09,25,04,41,8.10
2006,09,25,04,42,8.10
2006,09,25,04,43,8.10
2006,09,25,04,44,8.10
2006,09,25,04,45,8.00
2006,09,25,04,46,8.00
2006,09,25,04,47,8.00
2006,09,25,04,48,8.00
2006,09,25,04,49,8.00
2006,09,25,04,50,7.90
2006,09,25,04,51,7.90
2006,09,25,04,52,7.90
2006,09,25,04,53,7.90
2006,09,25,04,54,7.90
2006,09,25,04,55,7.90
2006,09,25,04,56,7.90
2006,09,25,04,57,7.90
2006,09,25,04,58,7.90
2006,09,25,04,59,7.90
2006,09,25,05,00,7.90
2006,09,25,05,01,7.90
2006,09,25,05,02,7.90
2006,09,25,05,03,7.90
2006,09,25,05,04,7.90
2006,09,25,05,05,7.80
2006,09,25,05,06,7.80
2006,09,25,05,07,7.80
2006,09,25,05,08,7.80
2006,09,25,05,09,7.80
2006,09,25,05,10,7.80
2006,09,25,05,11,7.80
2006,09,25,05,12,7.80
2006,09,25,05,13,7.80
2006,09,25,05,14,7.80
2006,09,25,05,15,7.80
2006,09,25,05,16,7.80
2006,09,25,05,17,7.80
2006,09,25,05,18,7.80
2006,09,25,05,19,7.80
2006,09,25,05,20,7.80
2006,09,25,05,21,7.80
2006,09,25,05,22,7.80
2006,09,25,05,23,7.80
2006,09,25,05,24,7.80
2006,09,25,05,25,7.80
2006,09,25,05,26,7.80
2006,09,25,05,27,7.80
2006,09,25,05,28,7.80
2006,09,25,05,29,7.80
2006,09,25,05,30,7.80
2006,09,25,05,31,7.80
2006,09,25,05,32,7.80
2006,09,25,05,33,7.80
2006,09,25,05,34,7.80
2006,09,25,05,35,7.80
2006,09,25,05,36,7.80
2006,09,25,05,37,7.80
2006,09,25,05,38,7.80
2006,09,25,05,39,7.80
2006,09,25,05,40,7.70
2006,09,25,05,41,7.70
2006,09,25,05,42,7.70
2006,09,25,05,43,7.70
2006,09,25,05,44,7.70
2006,09,25,05,45,7.70
2006,09,25,05,46,7.70
2006,09,25,05,47,7.70
2006,09,25,05,48,7.60
2006,09,25,05,49,7.60
2006,09,25,05,50,7.60
2006,09,25,05,51,7.60
2006,09,25,05,52,7.60
2006,09,25,05,53,7.60
2006,09,25,05,54,7.60
2006,09,25,05,55,7.60
2006,09,25,05,56,7.60
2006,09,25,05,57,7.60
2006,09,25,05,58,7.60
2006,09,25,05,59,7.60
2006,09,25,06,00,7.60
2006,09,25,06,01,7.60
2006,09,25,06,02,7.60
2006,09,25,06,03,7.60
2006,09,25,06,04,7.60
2006,09,25,06,05,7.60
2006,09,25,06,06,7.60
2006,09,25,06,07,7.60
2006,09,25,06,08,7.60
2006,09,25,06,09,7.60
2006,09,25,06,10,7.60
2006,09,25,06,11,7.60
2006,09,25,06,12,7.60
2006,09,25,06,13,7.60
2006,09,25,06,14,7.60
2006,09,25,06,15,7.60
2006,09,25,06,16,7.60
2006,09,25,06,17,7.50
2006,09,25,06,18,7.50
2006,09,25,06,19,7.50
2006,09,25,06,20,7.50
2006,09,25,06,21,7.50
2006,09,25,06,22,7.50
2006,09,25,06,23,7.50
2006,09,25,06,24,7.50
2006,09,25,06,25,7.50
2006,09,25,06,26,7.50
2006,09,25,06,27,7.50
2006,09,25,06,28,7.50
2006,09,25,06,29,7.40
2006,09,25,06,30,7.40
2006,09,25,06,31,7.40
2006,09,25,06,32,7.40
2006,09,25,06,33,7.40
2006,09,25,06,34,7.40
2006,09,25,06,35,7.40
2006,09,25,06,36,7.40
2006,09,25,06,37,7.40
2006,09,25,06,38,7.40
2006,09,25,06,39,7.40
2006,09,25,06,40,7.40
2006,09,25,06,41,7.40
2006,09,25,06,42,7.40
2006,09,25,06,43,7.30
2006,09,25,06,44,7.30
2006,09,25,06,45,7.30
2006,09,25,06,46,7.30
2006,09,25,06,47,7.30
2006,09,25,06,48,7.30
2006,09,25,06,49,7.30
2006,09,25,06,50,7.30
2006,09,25,06,51,7.30
2006,09,25,06,52,7.30
2006,09,25,06,53,7.30
2006,09,25,06,54,7.30
2006,09,25,06,55,7.40
2006,09,25,06,56,7.30
2006,09,25,06,57,7.30
2006,09,25,06,58,7.30
2006,09,25,06,59,7.30
2006,09,25,07,00,7.30
2006,09,25,07,01,7.30
2006,09,25,07,02,7.30
2006,09,25,07,03,7.30
2006,09,25,07,04,7.20
2006,09,25,07,05,7.30
2006,09,25,07,06,7.30
2006,09,25,07,07,7.20
2006,09,25,07,08,7.20
2006,09,25,07,09,7.20
2006,09,25,07,10,7.20
2006,09,25,07,11,7.20
2006,09,25,07,12,7.20
2006,09,25,07,13,7.20
2006,09,25,07,14,7.30
2006,09,25,07,15,7.30
2006,09,25,07,16,7.30
2006,09,25,07,17,7.30
2006,09,25,07,18,7.20
2006,09,25,07,19,7.20
2006,09,25,07,20,7.20
2006,09,25,07,21,7.20
2006,09,25,07,22,7.20
2006,09,25,07,23,7.20
2006,09,25,07,24,7.20
2006,09,25,07,25,7.20
2006,09,25,07,26,7.20
2006,09,25,07,27,7.20
2006,09,25,07,28,7.20
2006,09,25,07,29,7.20
2006,09,25,07,30,7.20
2006,09,25,07,31,7.30
2006,09,25,07,32,7.30
2006,09,25,07,33,7.30
2006,09,25,07,34,7.30
2006,09,25,07,35,7.30
2006,09,25,07,36,7.30
2006,09,25,07,37,7.30
2006,09,25,07,38,7.30
2006,09,25,07,39,7.40
2006,09,25,07,40,7.40
2006,09,25,07,41,7.40
2006,09,25,07,42,7.40
2006,09,25,07,43,7.30
2006,09,25,07,44,7.30
2006,09,25,07,45,7.30
2006,09,25,07,46,7.30
2006,09,25,07,47,7.30
2006,09,25,07,48,7.30
2006,09,25,07,49,7.30
2006,09,25,07,50,7.30
2006,09,25,07,51,7.40
2006,09,25,07,52,7.30
2006,09,25,07,53,7.40
2006,09,25,07,54,7.40
2006,09,25,07,55,7.40
2006,09,25,07,56,7.40
2006,09,25,07,57,7.40
2006,09,25,07,58,7.40
2006,09,25,07,59,7.40
2006,09,25,08,00,7.40
2006,09,25,08,01,7.50
2006,09,25,08,02,7.50
2006,09,25,08,03,7.50
2006,09,25,08,04,7.50
2006,09,25,08,05,7.50
2006,09,25,08,06,7.60
2006,09,25,08,07,7.60
2006,09,25,08,08,7.60
2006,09,25,08,09,7.60
2006,09,25,08,10,7.60
2006,09,25,08,11,7.70
2006,09,25,08,12,7.70
2006,09,25,08,13,7.70
2006,09,25,08,14,7.70
2006,09,25,08,15,7.70
2006,09,25,08,16,7.80
2006,09,25,08,17,7.80
2006,09,25,08,18,7.80
2006,09,25,08,19,7.80
2006,09,25,08,20,7.80
2006,09,25,08,21,7.80
2006,09,25,08,22,7.90
2006,09,25,08,23,7.90
2006,09,25,08,24,8.00
2006,09,25,08,25,8.10
2006,09,25,08,26,8.10
2006,09,25,08,27,8.10
2006,09,25,08,28,8.20
2006,09,25,08,29,8.20
2006,09,25,08,30,8.30
2006,09,25,08,31,8.30
2006,09,25,08,32,8.40
2006,09,25,08,33,8.50
2006,09,25,08,34,8.60
2006,09,25,08,35,8.70
2006,09,25,08,36,8.70
2006,09,25,08,37,8.80
2006,09,25,08,38,8.90
2006,09,25,08,39,9.00
2006,09,25,08,40,9.10
2006,09,25,08,41,9.10
2006,09,25,08,42,9.20
2006,09,25,08,43,9.20
2006,09,25,08,44,9.30
2006,09,25,08,45,9.40
2006,09,25,08,46,9.40
2006,09,25,08,47,9.50
2006,09,25,08,48,9.60
2006,09,25,08,49,9.60
2006,09,25,08,50,9.70
2006,09,25,08,51,9.70
2006,09,25,08,52,9.80
2006,09,25,08,53,9.90
2006,09,25,08,54,10.00
2006,09,25,08,55,10.10
2006,09,25,08,56,10.10
2006,09,25,08,57,10.20
2006,09,25,08,58,10.30
2006,09,25,08,59,10.30
2006,09,25,09,00,10.40
2006,09,25,09,01,10.40
2006,09,25,09,02,10.50
2006,09,25,09,03,10.50
2006,09,25,09,04,10.60
2006,09,25,09,05,10.60
2006,09,25,09,06,10.70
2006,09,25,09,07,10.70
2006,09,25,09,08,10.70
2006,09,25,09,09,10.80
2006,09,25,09,10,10.80
2006,09,25,09,11,10.80
2006,09,25,09,12,10.90
2006,09,25,09,13,10.90
2006,09,25,09,14,11.00
2006,09,25,09,15,11.00
2006,09,25,09,16,11.10
2006,09,25,09,17,11.10
2006,09,25,09,18,11.20
2006,09,25,09,19,11.20
2006,09,25,09,20,11.30
2006,09,25,09,21,11.50
2006,09,25,09,22,11.60
2006,09,25,09,23,11.70
2006,09,25,09,24,11.80
2006,09,25,09,25,11.90
2006,09,25,09,26,12.00
2006,09,25,09,27,12.20
2006,09,25,09,28,12.30
2006,09,25,09,29,12.40
2006,09,25,09,30,12.50
2006,09,25,09,31,12.60
2006,09,25,09,32,12.70
2006,09,25,09,33,12.90
2006,09,25,09,34,13.00
2006,09,25,09,35,13.10
2006,09,25,09,36,13.30
2006,09,25,09,37,13.40
2006,09,25,09,38,13.60
2006,09,25,09,39,13.70
2006,09,25,09,40,13.80
2006,09,25,09,41,13.90
2006,09,25,09,42,14.00
2006,09,25,09,43,14.10
2006,09,25,09,44,14.20
2006,09,25,09,45,14.30
2006,09,25,09,46,14.30
2006,09,25,09,47,14.40
2006,09,25,09,48,14.50
2006,09,25,09,49,14.60
2006,09,25,09,50,14.70
2006,09,25,09,51,14.80
2006,09,25,09,52,14.90
2006,09,25,09,53,15.00
2006,09,25,09,54,15.00
2006,09,25,09,55,15.00
2006,09,25,09,56,15.00
2006,09,25,09,57,15.10
2006,09,25,09,58,15.20
2006,09,25,09,59,15.30
2006,09,25,10,00,15.30
2006,09,25,10,01,15.30
2006,09,25,10,02,15.40
2006,09,25,10,03,15.40
2006,09,25,10,04,15.50
2006,09,25,10,05,15.60
2006,09,25,10,06,15.80
2006,09,25,10,07,15.90
2006,09,25,10,08,16.10
2006,09,25,10,09,16.30
2006,09,25,10,10,16.50
2006,09,25,10,11,16.60
2006,09,25,10,12,16.70
2006,09,25,10,13,16.80
2006,09,25,10,14,16.90
2006,09,25,10,15,16.90
2006,09,25,10,16,17.00
2006,09,25,10,17,17.10
2006,09,25,10,18,17.10
2006,09,25,10,19,17.20
2006,09,25,10,20,17.20
2006,09,25,10,21,17.20
2006,09,25,10,22,17.30
2006,09,25,10,23,17.30
2006,09,25,10,24,17.30
2006,09,25,10,25,17.40
2006,09,25,10,26,17.50
2006,09,25,10,27,17.50
2006,09,25,10,28,17.60
2006,09,25,10,29,17.70
2006,09,25,10,30,17.70
2006,09,25,10,31,17.80
2006,09,25,10,32,17.80
2006,09,25,10,33,17.80
2006,09,25,10,34,17.90
2006,09,25,10,35,17.90
2006,09,25,10,36,18.00
2006,09,25,10,37,18.00
2006,09,25,10,38,18.00
2006,09,25,10,39,18.00
2006,09,25,10,40,18.00
2006,09,25,10,41,18.10
2006,09,25,10,42,18.10
2006,09,25,10,43,18.20
2006,09,25,10,44,18.30
2006,09,25,10,45,18.30
2006,09,25,10,46,18.40
2006,09,25,10,47,18.50
2006,09,25,10,48,18.60
2006,09,25,10,49,18.70
2006,09,25,10,50,18.80
2006,09,25,10,51,18.80
2006,09,25,10,52,18.90
2006,09,25,10,53,19.00
2006,09,25,10,54,19.00
2006,09,25,10,55,19.10
2006,09,25,10,56,19.10
2006,09,25,10,57,19.10
2006,09,25,10,58,19.20
2006,09,25,10,59,19.20
2006,09,25,11,00,19.30
2006,09,25,11,01,19.30
2006,09,25,11,02,19.40
2006,09,25,11,03,19.40
2006,09,25,11,04,19.30
2006,09,25,11,05,19.20
2006,09,25,11,06,19.20
2006,09,25,11,07,19.30
2006,09,25,11,08,19.40
2006,09,25,11,09,19.40
2006,09,25,11,10,19.50
2006,09,25,11,11,19.50
2006,09,25,11,12,19.60
2006,09,25,11,13,19.70
2006,09,25,11,14,19.80
2006,09,25,11,15,19.90
2006,09,25,11,16,20.00
2006,09,25,11,17,20.10
2006,09,25,11,18,20.20
2006,09,25,11,19,20.30
2006,09,25,11,20,20.40
2006,09,25,11,21,20.50
2006,09,25,11,22,20.60
2006,09,25,11,23,20.60
2006,09,25,11,24,20.70
2006,09,25,11,25,20.70
2006,09,25,11,26,20.80
2006,09,25,11,27,20.80
2006,09,25,11,28,20.70
2006,09,25,11,29,20.60
2006,09,25,11,30,20.60
2006,09,25,11,31,20.50
2006,09,25,11,32,20.40
2006,09,25,11,33,20.40
2006,09,25,11,34,20.30
2006,09,25,11,35,20.20
2006,09,25,11,36,20.10
2006,09,25,11,37,20.00
2006,09,25,11,38,20.00
2006,09,25,11,39,20.00
2006,09,25,11,40,20.10
2006,09,25,11,41,20.10
2006,09,25,11,42,20.20
2006,09,25,11,43,20.20
2006,09,25,11,44,20.30
2006,09,25,11,45,20.30
2006,09,25,11,46,20.40
2006,09,25,11,47,20.40
2006,09,25,11,48,20.50
2006,09,25,11,49,20.70
2006,09,25,11,50,20.70
2006,09,25,11,51,20.70
2006,09,25,11,52,20.70
2006,09,25,11,53,20.70
2006,09,25,11,54,20.80
2006,09,25,11,55,20.80
2006,09,25,11,56,20.80
2006,09,25,11,57,20.80
2006,09,25,11,58,20.80
2006,09,25,11,59,20.80
2006,09,25,12,00,20.80
2006,09,25,12,01,20.80
2006,09,25,12,02,20.80
2006,09,25,12,03,20.80
2006,09,25,12,04,20.90
2006,09,25,12,05,20.90
2006,09,25,12,06,20.90
2006,09,25,12,07,20.90
2006,09,25,12,08,20.90
2006,09,25,12,09,21.00
2006,09,25,12,10,21.00
2006,09,25,12,11,21.10
2006,09,25,12,12,21.10
2006,09,25,12,13,21.10
2006,09,25,12,14,21.10
2006,09,25,12,15,21.10
2006,09,25,12,16,21.10
2006,09,25,12,17,21.10
2006,09,25,12,18,21.10
2006,09,25,12,19,21.10
2006,09,25,12,20,21.20
2006,09,25,12,21,21.20
2006,09,25,12,22,21.30
2006,09,25,12,23,21.30
2006,09,25,12,24,21.40
2006,09,25,12,25,21.50
2006,09,25,12,26,21.50
2006,09,25,12,27,21.50
2006,09,25,12,28,21.60
2006,09,25,12,29,21.60
2006,09,25,12,30,21.60
2006,09,25,12,31,21.70
2006,09,25,12,32,21.60
2006,09,25,12,33,21.60
2006,09,25,12,34,21.60
2006,09,25,12,35,21.60
2006,09,25,12,36,21.70
2006,09,25,12,37,21.70
2006,09,25,12,38,21.80
2006,09,25,12,39,21.80
2006,09,25,12,40,21.80
2006,09,25,12,41,21.80
2006,09,25,12,42,21.80
2006,09,25,12,43,21.80
2006,09,25,12,44,21.80
2006,09,25,12,45,21.80
2006,09,25,12,46,21.80
2006,09,25,12,47,21.80
2006,09,25,12,48,21.90
2006,09,25,12,49,21.90
2006,09,25,12,50,21.90
2006,09,25,12,51,21.90
2006,09,25,12,52,22.00
2006,09,25,12,53,22.00
2006,09,25,12,54,22.10
2006,09,25,12,55,22.20
2006,09,25,12,56,22.20
2006,09,25,12,57,22.30
2006,09,25,12,58,22.40
2006,09,25,12,59,22.40
2006,09,25,13,00,22.50
2006,09,25,13,01,22.50
2006,09,25,13,02,22.60
2006,09,25,13,03,22.60
2006,09,25,13,04,22.50
2006,09,25,13,05,22.40
2006,09,25,13,06,22.30
2006,09,25,13,07,22.30
2006,09,25,13,08,22.20
2006,09,25,13,09,22.20
2006,09,25,13,10,22.20
2006,09,25,13,11,22.10
2006,09,25,13,12,22.10
2006,09,25,13,13,22.10
2006,09,25,13,14,22.10
2006,09,25,13,15,22.10
2006,09,25,13,16,22.10
2006,09,25,13,17,22.10
2006,09,25,13,18,22.20
2006,09,25,13,19,22.20
2006,09,25,13,20,22.30
2006,09,25,13,21,22.30
2006,09,25,13,22,22.40
2006,09,25,13,23,22.40
2006,09,25,13,24,22.50
2006,09,25,13,25,22.50
2006,09,25,13,26,22.50
2006,09,25,13,27,22.60
2006,09,25,13,28,22.60
2006,09,25,13,29,22.70
2006,09,25,13,30,22.70
2006,09,25,13,31,22.70
2006,09,25,13,32,22.70
2006,09,25,13,33,22.60
2006,09,25,13,34,22.70
2006,09,25,13,35,22.70
2006,09,25,13,36,22.60
2006,09,25,13,37,22.70
2006,09,25,13,38,22.70
2006,09,25,13,39,22.70
2006,09,25,13,40,22.80
2006,09,25,13,41,22.80
2006,09,25,13,42,22.90
2006,09,25,13,43,22.90
2006,09,25,13,44,23.00
2006,09,25,13,45,23.10
2006,09,25,13,46,23.20
2006,09,25,13,47,23.30
2006,09,25,13,48,23.30
2006,09,25,13,49,23.30
2006,09,25,13,50,23.30
2006,09,25,13,51,23.30
2006,09,25,13,52,23.30
2006,09,25,13,53,23.30
2006,09,25,13,54,23.40
2006,09,25,13,55,23.50
2006,09,25,13,56,23.50
2006,09,25,13,57,23.50
2006,09,25,13,58,23.50
2006,09,25,13,59,23.50
2006,09,25,14,00,23.50
2006,09,25,14,01,23.50
2006,09,25,14,02,23.50
2006,09,25,14,03,23.40
2006,09,25,14,04,23.40
2006,09,25,14,05,23.40
2006,09,25,14,06,23.40
2006,09,25,14,07,23.40
2006,09,25,14,08,23.40
2006,09,25,14,09,23.40
2006,09,25,14,10,23.40
2006,09,25,14,11,23.30
2006,09,25,14,12,23.30
2006,09,25,14,13,23.40
2006,09,25,14,14,23.40
2006,09,25,14,15,23.40
2006,09,25,14,16,23.40
2006,09,25,14,17,23.50
2006,09,25,14,18,23.50
2006,09,25,14,19,23.50
2006,09,25,14,20,23.50
2006,09,25,14,21,23.60
2006,09,25,14,22,23.60
2006,09,25,14,23,23.60
2006,09,25,14,24,23.60
2006,09,25,14,25,23.60
2006,09,25,14,26,23.60
2006,09,25,14,27,23.70
2006,09,25,14,28,23.70
2006,09,25,14,29,23.70
2006,09,25,14,30,23.80
2006,09,25,14,31,23.90
2006,09,25,14,32,24.00
2006,09,25,14,33,24.10
2006,09,25,14,34,24.20
2006,09,25,14,35,24.20
2006,09,25,14,36,24.20
2006,09,25,14,37,24.20
2006,09,25,14,38,24.20
2006,09,25,14,39,24.20
2006,09,25,14,40,24.20
2006,09,25,14,41,24.20
2006,09,25,14,42,24.20
2006,09,25,14,43,24.20
2006,09,25,14,44,24.20
2006,09,25,14,45,24.20
2006,09,25,14,46,24.20
2006,09,25,14,47,24.20
2006,09,25,14,48,24.30
2006,09,25,14,49,24.30
2006,09,25,14,50,24.30
2006,09,25,14,51,24.30
2006,09,25,14,52,24.30
2006,09,25,14,53,24.40
2006,09,25,14,54,24.40
2006,09,25,14,55,24.30
2006,09,25,14,56,24.30
2006,09,25,14,57,24.30
2006,09,25,14,58,24.30
2006,09,25,14,59,24.30
2006,09,25,15,00,24.30
2006,09,25,15,01,24.20
2006,09,25,15,02,24.20
2006,09,25,15,03,24.10
2006,09,25,15,04,24.10
2006,09,25,15,05,24.00
2006,09,25,15,06,23.90
2006,09,25,15,07,23.90
2006,09,25,15,08,23.90
2006,09,25,15,09,23.90
2006,09,25,15,10,23.80
2006,09,25,15,11,23.90
2006,09,25,15,12,23.90
2006,09,25,15,13,23.90
2006,09,25,15,14,23.90
2006,09,25,15,15,23.90
2006,09,25,15,16,23.90
2006,09,25,15,17,23.90
2006,09,25,15,18,24.00
2006,09,25,15,19,24.00
2006,09,25,15,20,24.00
2006,09,25,15,21,23.90
2006,09,25,15,22,23.90
2006,09,25,15,23,23.90
2006,09,25,15,24,23.90
2006,09,25,15,25,23.90
2006,09,25,15,26,23.90
2006,09,25,15,27,23.90
2006,09,25,15,28,23.90
2006,09,25,15,29,24.00
2006,09,25,15,30,23.90
2006,09,25,15,31,23.90
2006,09,25,15,32,23.90
2006,09,25,15,33,23.80
2006,09,25,15,34,23.80
2006,09,25,15,35,23.80
2006,09,25,15,36,23.80
2006,09,25,15,37,23.80
2006,09,25,15,38,23.80
2006,09,25,15,39,23.80
2006,09,25,15,40,23.80
2006,09,25,15,41,23.90
2006,09,25,15,42,23.90
2006,09,25,15,43,23.90
2006,09,25,15,44,24.00
2006,09,25,15,45,24.00
2006,09,25,15,46,24.00
2006,09,25,15,47,24.00
2006,09,25,15,48,23.90
2006,09,25,15,49,23.90
2006,09,25,15,50,23.90
2006,09,25,15,51,23.90
2006,09,25,15,52,23.90
2006,09,25,15,53,23.90
2006,09,25,15,54,23.90
2006,09,25,15,55,23.90
2006,09,25,15,56,23.80
2006,09,25,15,57,23.80
2006,09,25,15,58,23.80
2006,09,25,15,59,23.80
2006,09,25,16,00,23.80
2006,09,25,16,01,23.80
2006,09,25,16,02,23.80
2006,09,25,16,03,23.80
2006,09,25,16,04,23.80
2006,09,25,16,05,23.80
2006,09,25,16,06,23.90
2006,09,25,16,07,23.90
2006,09,25,16,08,23.90
2006,09,25,16,09,23.80
2006,09,25,16,10,23.80
2006,09,25,16,11,23.80
2006,09,25,16,12,23.80
2006,09,25,16,13,23.80
2006,09,25,16,14,23.90
2006,09,25,16,15,23.90
2006,09,25,16,16,23.90
2006,09,25,16,17,24.00
2006,09,25,16,18,23.90
2006,09,25,16,19,23.90
2006,09,25,16,20,23.90
2006,09,25,16,21,23.90
2006,09,25,16,22,23.90
2006,09,25,16,23,23.90
2006,09,25,16,24,23.80
2006,09,25,16,25,23.80
2006,09,25,16,26,23.80
2006,09,25,16,27,23.80
2006,09,25,16,28,23.80
2006,09,25,16,29,23.90
2006,09,25,16,30,23.90
2006,09,25,16,31,23.80
2006,09,25,16,32,23.80
2006,09,25,16,33,23.80
2006,09,25,16,34,23.80
2006,09,25,16,35,23.80
2006,09,25,16,36,23.80
2006,09,25,16,37,23.90
2006,09,25,16,38,23.80
2006,09,25,16,39,23.80
2006,09,25,16,40,23.80
2006,09,25,16,41,23.80
2006,09,25,16,42,23.80
2006,09,25,16,43,23.80
2006,09,25,16,44,23.80
2006,09,25,16,45,23.80
2006,09,25,16,46,23.80
2006,09,25,16,47,23.80
2006,09,25,16,48,23.80
2006,09,25,16,49,23.70
2006,09,25,16,50,23.70
2006,09,25,16,51,23.70
2006,09,25,16,52,23.70
2006,09,25,16,53,23.70
2006,09,25,16,54,23.70
2006,09,25,16,55,23.70
2006,09,25,16,56,23.60
2006,09,25,16,57,23.60
2006,09,25,16,58,23.60
2006,09,25,16,59,23.60
2006,09,25,17,00,23.60
2006,09,25,17,01,23.60
2006,09,25,17,02,23.60
2006,09,25,17,03,23.60
2006,09,25,17,04,23.60
2006,09,25,17,05,23.60
2006,09,25,17,06,23.60
2006,09,25,17,07,23.60
2006,09,25,17,08,23.60
2006,09,25,17,09,23.50
2006,09,25,17,10,23.50
2006,09,25,17,11,23.40
2006,09,25,17,12,23.40
2006,09,25,17,13,23.40
2006,09,25,17,14,23.40
2006,09,25,17,15,23.40
2006,09,25,17,16,23.30
2006,09,25,17,17,23.30
2006,09,25,17,18,23.30
2006,09,25,17,19,23.30
2006,09,25,17,20,23.30
2006,09,25,17,21,23.30
2006,09,25,17,22,23.30
2006,09,25,17,23,23.30
2006,09,25,17,24,23.30
2006,09,25,17,25,23.30
2006,09,25,17,26,23.20
2006,09,25,17,27,23.20
2006,09,25,17,28,23.20
2006,09,25,17,29,23.20
2006,09,25,17,30,23.20
2006,09,25,17,31,23.10
2006,09,25,17,32,23.10
2006,09,25,17,33,23.10
2006,09,25,17,34,23.10
2006,09,25,17,35,23.10
2006,09,25,17,36,23.00
2006,09,25,17,37,22.90
2006,09,25,17,38,22.90
2006,09,25,17,39,22.90